User: anonymous   Login
Location: Minneapolis
(44.9800°N, 93.2640°W)
Time: 10:03:24
(UTC-06:00)
Language:

Iridium 96 - Orbit

View from above orbital plane
View from above orbital plane
View from above satellite
View from above satellite

Ground track
Ground track

The orbit data is extracted from the following two-line orbital elements,

1 27376U 02005E   14327.46110450  .00000083  00000-0  22661-4 0  7428
2 27376 086.3987 350.4414 0001228 012.5954 347.5273 14.34214838681855
Epoch (UTC): 23 November 2014 11:03:59
Eccentricity: 0.0001228
inclination: 86.3987°
perigee height: 777 km
apogee height: 778 km
right ascension of ascending node: 350.4414°
argument of perigee: 12.5954°
revolutions per day: 14.34214838
mean anomaly at epoch: 347.5273°
orbit number at epoch: 68185

The dashed part of the orbit path shows where the satellite is in the earth's shadow,  

DLR